Location: Newark
(39.6867°N, 100.6772°W)
Time: 20:46:56
(UTC+00:00)

Vanguard 2 Rocket - All Passes

Search period start: 21 October 2019 00:00
Search period end: 31 October 2019 00:00
Orbit: 553 x 3327 km, 32.9° (Epoch: 20 October)

Date Brightness Start Highest point End Pass type
(mag) Time Alt. Az. Time Alt. Az. Time Alt. Az.
21 Oct - 13:18:04 10° SSW 13:31:02 33° SE 13:47:18 10° E daylight
21 Oct - 15:29:38 10° SW 15:47:01 60° SSE 16:06:16 10° E daylight
21 Oct - 17:45:14 10° W 18:05:12 71° S 18:22:29 10° ESE daylight
21 Oct - 20:03:21 10° W 20:22:39 56° SSW 20:36:15 10° SE daylight
21 Oct - 22:24:03 10° W 22:36:58 26° SW 22:46:13 10° S daylight
22 Oct - 12:20:23 10° S 12:30:35 23° SE 12:43:24 10° E visible
22 Oct - 14:29:44 10° SW 14:45:16 52° SSE 15:04:23 10° E daylight
22 Oct - 16:43:55 10° WSW 17:02:55 70° S 17:21:40 10° E daylight
22 Oct - 19:01:02 10° W 19:21:05 64° SSW 19:36:36 10° ESE daylight
22 Oct - 21:20:25 10° W 21:36:48 37° SW 21:48:19 10° SSE daylight
23 Oct - 11:24:58 10° SSE 11:30:38 13° SE 11:37:09 10° ESE visible
23 Oct - 13:30:31 10° SSW 13:44:01 42° SE 14:01:54 10° E daylight
23 Oct - 15:43:12 10° WSW 16:00:40 66° SSE 16:20:19 10° E daylight
23 Oct - 17:59:11 10° W 18:19:03 69° S 18:36:24 10° ESE daylight
23 Oct - 20:17:28 10° W 20:36:01 48° SSW 20:49:34 10° SE daylight
23 Oct - 22:39:52 10° W 22:49:43 18° SW 22:57:31 10° SSW daylight
24 Oct - 12:32:05 10° SSW 12:43:23 31° SE 12:58:43 10° E visible
24 Oct - 14:43:04 10° SW 14:58:43 60° SSE 15:18:29 10° E daylight
24 Oct - 16:57:49 10° W 17:16:45 71° S 17:35:38 10° ESE daylight
24 Oct - 19:15:05 10° W 19:34:39 57° SSW 19:50:10 10° SE daylight
24 Oct - 21:35:12 10° W 21:49:42 28° SW 22:00:38 10° S daylight
25 Oct - 11:34:44 10° S 11:43:18 21° SE 11:54:31 10° E visible
25 Oct - 13:43:33 10° SW 13:57:15 51° SSE 14:16:08 10° E daylight
25 Oct - 15:57:00 10° WSW 16:14:27 70° S 16:34:19 10° E daylight
25 Oct - 18:13:11 10° W 18:32:47 64° SSW 18:50:08 10° ESE daylight
25 Oct - 20:31:48 10° W 20:49:09 39° SW 21:02:25 10° SSE daylight
25 Oct - 22:59:31 10° WSW 23:02:23 11° SW 23:05:03 10° SW daylight
26 Oct - 10:40:26 10° SE 10:43:42 11° SE 10:47:19 10° ESE visible
26 Oct - 12:44:39 10° SSW 12:56:22 40° SE 13:13:18 10° E daylight
26 Oct - 14:56:43 10° WSW 15:12:21 66° SSE 15:32:29 10° E daylight
26 Oct - 17:11:49 10° W 17:30:35 69° S 17:49:29 10° ESE daylight
26 Oct - 19:29:13 10° W 19:48:01 48° SSW 20:03:22 10° SE daylight
26 Oct - 21:50:56 10° W 22:02:29 20° SW 22:11:53 10° S daylight
27 Oct - 11:46:30 10° SSW 11:56:07 29° SE 12:09:53 10° E visible
27 Oct - 13:56:59 10° SW 14:10:42 59° SSE 14:30:12 10° E daylight
27 Oct - 16:10:57 10° W 16:28:17 71° S 16:48:15 10° ESE daylight
27 Oct - 18:27:15 10° W 18:46:21 57° SSW 19:03:36 10° SE daylight
27 Oct - 20:46:36 10° W 21:02:05 29° SW 21:14:37 10° S daylight
28 Oct - 10:49:30 10° S 10:56:25 19° SE 11:05:32 10° E visible
28 Oct - 12:57:47 10° SW 13:09:36 49° SSE 13:27:31 10° E daylight
28 Oct - 15:10:35 10° WSW 15:26:09 69° S 15:46:27 10° E daylight
28 Oct - 17:25:52 10° W 17:44:19 64° SSW 18:03:09 10° ESE daylight
28 Oct - 19:43:35 10° W 20:01:10 39° SW 20:16:05 10° SSE daylight
28 Oct - 22:09:30 10° WSW 22:15:08 12° SW 22:20:19 10° SW daylight
29 Oct - 11:59:10 10° SSW 12:09:08 38° SE 12:24:29 10° E visible
29 Oct - 14:10:42 10° WSW 14:24:22 65° SSE 14:44:11 10° E daylight
29 Oct - 16:24:59 10° W 16:42:07 68° S 17:02:02 10° ESE daylight
29 Oct - 18:41:27 10° W 18:59:45 48° SSW 19:16:41 10° SE daylight
29 Oct - 21:02:20 10° W 21:14:53 21° SW 21:25:43 10° S daylight
30 Oct - 11:01:17 10° S 11:09:16 27° SE 11:21:00 10° E visible
30 Oct - 13:11:18 10° SW 13:23:06 58° SSE 13:41:34 10° E daylight
30 Oct - 15:24:34 10° W 15:40:01 70° S 16:00:21 10° ESE daylight
30 Oct - 17:39:58 10° W 17:57:56 57° SSW 18:16:31 10° SE daylight
30 Oct - 19:58:26 10° W 20:14:11 30° SW 20:28:06 10° S daylight
